Showing default

COSMOS 2090, 20735

Orbit data source: Space-Track

COSMOS 2090, 20735 is a payload satellite owned by UNKS (CIS) in LEO that was launched on Wed, 08 Aug 1990 UTC via a TSIKLON-3 launch vehicle from the Plesetsk Missile And Space Complex (PKMTR). Payload-class satellites include a variety of spacecraft equipped with specific instruments for various scientific and technological missions. These include communications satellites like Starlink; space stations such as the ISS; scientific satellites like the Hubble; Earth observation satellites from companies like Planet Labs, Umbra, and HawkEye 360; GPS; miniature CubeSats for education and research; and military/defense satellites.

Loading next visibility...
Identifier
20735, 1990-070A
Orbit
LEO
Country
Flag of CISCIS
Related business
Manufacturer
NPO PM
Mission
Defense Communications
Bus & Motor
STRELA-3, Unknown motor
Mass
225 kg wet, 225 kg dry
Launch date (UTC)
1990-08-08 (35 years ago)
Launch vehicle
TSIKLON-3
Launch site
Plesetsk Missile And Space Complex (PKMTR)
Object type
Payload
Rocket body
Debris
Shape & HBR
Cyl, 0.8 m
Radar Cross Section
1.257 m², Large (>1 m²)

Expand to show TLE details & history
Last TLE update: 19 hours ago

TLE from 19 hours ago
0 COSMOS 2090
1 20735U 90070A   25257.57339145  .00000021  00000-0  54932-4 0  9991
2 20735  82.5610  89.3521 0013914 335.4211 126.8738 12.65355413621072
Epoch: 2025-09-14T13:45Z
TLE epoch observation values (Epoch: 2025-09-14T13:45:41.021Z)
Latitude
75.60639°
Longitude
38.72573°
Altitude
1,420.318 km
Speed
7.154 km/s
True Right ascension
15h 55m 44s
True Declination
75° 31' 50"
Sunlit
Object was in daylight at epoch
Visualization orbit readout
Latitude
Unknown
Longitude
Unknown
Altitude
Unknown
Speed
Unknown
Apparent Right ascension
Unknown
Apparent Declination
Unknown
Sunlit
N/A
Visualization observer readout
Local Sidereal Time
01:46:00
Azimuth
Unknown
Elevation
Unknown
Doppler factor
Unknown
Orbital elements
Apogee altitude
1,409.055 km
Perigee altitude
1,387.415 km
Semi-major axis
7,776.372 km
Eccentricity
0.00139
Inclination
82.561°
RAAN
89.3521°
Arg. of periapsis
335.4211°
True anomaly
127.00121°
Mean anomaly
126.8738°
Eccentric anomaly
126.93752°
Mean motion
3.16503 °/min
Orbital period
113.74 mins
BSTAR
0.000054932
Loading maneuver chart data...
Computing Atmospheric mass density...
Loading historical data...
Loading historical data...
Loading historical data...
Loading historical data...
Loading historical data...
Loading historical data...
Loading historical data...

Documentation

Showing up to 5 results
|